Brno, Czech Republic

10:01 AM CET on February 23, 2018 (GMT +0100)
Turany

Weather History for LKTB - September, 2012

Change the Weather History Date:

Monday, September 10, 2012

  Actual Average Record
Temperature  
Mean Temperature 70 °F -  
Max Temperature 83 °F 64 °F - ()
Min Temperature 57 °F 46 °F - ()
Cooling Degree Days 5    
Growing Degree Days 20 (Base 50)    
Moisture  
Dew Point 51 °F    
Average Humidity 50    
Maximum Humidity 77    
Minimum Humidity 26    
Precipitation  
Precipitation 0.00 in 0.05 in - ()
Sea Level Pressure  
Sea Level Pressure 30.07 in    
Wind  
Wind Speed 8 mph ()    
Max Wind Speed 16 mph    
Max Gust Speed -    
Visibility 16.0 miles    
Events      
T = Trace of Precipitation, MM = Missing Value Source: Averaged Metar Reports

Daily Weather History Graph

Daily Weather History Graph

Search for Another Location

Airport or City:

Trip Planner

Search our weather history database for the weather conditions in past years. The results will help you decide how hot, cold, wet, or windy it might be!

Date:

Astronomy

Sep. 10, 2012 Rise Set
Actual Time 6:22 AM CEST 7:16 PM CEST
Civil Twilight 5:50 AM CEST 7:48 PM CEST
Nautical Twilight 5:11 AM CEST 8:27 PM CEST
Astronomical Twilight 4:30 AM CEST 9:07 PM CEST
Moon 12:04 AM CEST (9/10) 3:55 PM CEST (9/10)
Length of Visible Light 13h 58m
Length of Day
12h 53m
Waning Crescent, 32% of the Moon is Illuminated
Sep 10
Waning Crescent
Sep 16
New
Sep 22
First Quarter
Sep 30
Full
Oct 8
Last Quarter

Hourly Weather History & Observations

Time (CEST) Temp. Dew Point Humidity Pressure Visibility Wind Dir Wind Speed Gust Speed Precip Events Conditions
12:00 AM 64.4 °F 51.8 °F 64% 30.06 in - ENE 10.4 mph - N/A   Clear
12:30 AM 62.6 °F 51.8 °F 68% 30.06 in - ENE 9.2 mph - N/A   Clear
1:00 AM 62.6 °F 51.8 °F 68% 30.06 in - ENE 10.4 mph - N/A   Clear
1:30 AM 60.8 °F 51.8 °F 72% 30.06 in - East 9.2 mph - N/A   Clear
2:00 AM 61 °F 52 °F 63% 30.07 in 16 mi ENE 8.9 mph - -  
2:00 AM 60.8 °F 51.8 °F 72% 30.06 in - ENE 9.2 mph - N/A   Clear
2:30 AM 60.8 °F 51.8 °F 72% 30.06 in - East 9.2 mph - N/A   Clear
3:00 AM 59.0 °F 51.8 °F 77% 30.06 in - East 9.2 mph - N/A   Clear
3:30 AM 59.0 °F 50.0 °F 72% 30.06 in - East 6.9 mph - N/A   Clear
4:00 AM 59.0 °F 50.0 °F 72% 30.06 in - ENE 9.2 mph - N/A   Clear
4:30 AM 59.0 °F 50.0 °F 72% 30.06 in - ENE 8.1 mph - N/A   Clear
5:00 AM 59.0 °F 50.0 °F 72% 30.06 in - ENE 8.1 mph - N/A   Clear
5:30 AM 60.8 °F 50.0 °F 68% 30.06 in - ENE 10.4 mph - N/A   Clear
6:00 AM 59.0 °F 50.0 °F 72% 30.06 in - East 9.2 mph - N/A   Clear
6:30 AM 60.8 °F 48.2 °F 63% 30.06 in - ENE 8.1 mph - N/A   Clear
7:00 AM 60.8 °F 48.2 °F 63% 30.09 in - ENE 8.1 mph - N/A   Clear
7:30 AM 60.8 °F 50.0 °F 68% 30.09 in - ENE 6.9 mph - N/A   Clear
8:00 AM 65 °F 51 °F 52% 30.09 in 22 mi East 6.7 mph - -   Clear
8:00 AM 64.4 °F 50.0 °F 59% 30.09 in - East 6.9 mph - N/A   Clear
8:30 AM 66.2 °F 50.0 °F 56% 30.09 in - ESE 5.8 mph - N/A   Clear
9:00 AM 68.0 °F 51.8 °F 56% 30.09 in - SE 10.4 mph - N/A   Clear
9:30 AM 69.8 °F 51.8 °F 53% 30.09 in - SSE 9.2 mph - N/A   Clear
10:00 AM 71.6 °F 50.0 °F 46% 30.09 in - South 10.4 mph - N/A   Clear
10:30 AM 73.4 °F 51.8 °F 47% 30.09 in - SSE 13.8 mph - N/A   Clear
11:00 AM 75.2 °F 50.0 °F 41% 30.09 in - SSE 10.4 mph - N/A   Clear
11:30 AM 75.2 °F 50.0 °F 41% 30.09 in - SSE 12.7 mph - N/A   Clear
12:00 PM 78.8 °F 51.8 °F 39% 30.09 in - SSE 11.5 mph - N/A   Clear
12:30 PM 78.8 °F 51.8 °F 39% 30.09 in - SSE 11.5 mph - N/A   Clear
1:00 PM 80.6 °F 51.8 °F 37% 30.09 in - SSE 12.7 mph - N/A   Clear
1:30 PM 80.6 °F 51.8 °F 37% 30.09 in - South 13.8 mph - N/A   Clear
2:00 PM 81 °F 52 °F 26% 30.05 in 22 mi South 15.7 mph - -   Clear
2:00 PM 80.6 °F 51.8 °F 37% 30.09 in - South 15.0 mph - N/A   Clear
2:30 PM 80.6 °F 51.8 °F 37% 30.09 in - South 12.7 mph - N/A   Clear
3:00 PM 82.4 °F 51.8 °F 35% 30.06 in - South 12.7 mph - N/A   Clear
3:30 PM 82.4 °F 51.8 °F 35% 30.06 in - South 10.4 mph - N/A   Clear
4:00 PM 82.4 °F 51.8 °F 35% 30.06 in - South 12.7 mph - N/A   Clear
4:30 PM 82.4 °F 50.0 °F 32% 30.06 in - South 10.4 mph - N/A   Clear
5:00 PM 84.2 °F 50.0 °F 30% 30.06 in - South 11.5 mph - N/A   Clear
5:30 PM 82.4 °F 50.0 °F 32% 30.06 in - South 8.1 mph - N/A   Clear
6:00 PM 82.4 °F 50.0 °F 32% 30.06 in - South 9.2 mph - N/A   Clear
6:30 PM 80.6 °F 50.0 °F 34% 30.04 in - South 6.9 mph - N/A   Clear
7:00 PM 78.8 °F 50.0 °F 36% 30.04 in - SSE 5.8 mph - N/A   Clear
7:30 PM 75.2 °F 50.0 °F 41% 30.04 in - SE 4.6 mph - N/A   Clear
8:00 PM 75 °F 50 °F 30% 30.04 in 25 mi ESE 6.7 mph - -   Clear
8:00 PM 75.2 °F 50.0 °F 41% 30.06 in - ESE 5.8 mph - N/A   Clear
8:30 PM 73.4 °F 50.0 °F 44% 30.06 in - ESE 5.8 mph - N/A   Clear
9:00 PM 73.4 °F 50.0 °F 44% 30.06 in - East 3.5 mph - N/A   Clear
9:30 PM 73.4 °F 50.0 °F 44% 30.06 in - NE 3.5 mph - N/A   Clear
10:00 PM 71.6 °F 48.2 °F 43% 30.06 in - ENE 3.5 mph - N/A   Clear
10:30 PM 71.6 °F 48.2 °F 43% 30.06 in - ENE 4.6 mph - N/A   Clear
11:00 PM 69.8 °F 48.2 °F 46% 30.06 in - NE 5.8 mph - N/A   Clear
11:30 PM 68.0 °F 48.2 °F 49% 30.06 in - NNE 5.8 mph - N/A   Clear